Regional Weather Roundup
Issued by NWS

Home | Current Version | Previous Version | Graphics & Text | Print | Product List | Glossary On
Versions: 1 2 3 4 5 6 7 8 9 10 11 12 13 14 15 16 17 18 19 20 21 22 23 24 25 26 27 28 29 30 31 32 33 34 35 36 37 38 39 40 41 42 43 44 45 46 47 48 49 50
000
ASUS45 KCYS 061510
RWRWY

WYOMING REGIONAL WEATHER ROUNDUP
NATIONAL WEATHER SERVICE CHEYENNE WY
800 AM MST SAT FEB 06 2016

NOTE:  "FAIR" INDICATES FEW OR NO CLOUDS BELOW 12,000 FEET
WITH NO SIGNIFICANT WEATHER AND/OR OBSTRUCTIONS TO VISIBILITY.

WYZ001-061600-
YELLOWSTONE NATIONAL PARK

CITY           SKY/WX    TMP DP  RH WIND       PRES   REMARKS
LK YELLOWSTONE   N/A     20  16  84 VRB5      30.29F WCI  13
W YELLOWSTONE  NOT AVBL

$$
WYZ002>013-054>058-071-098>099-061600-
NORTHERN WYOMING

CITY           SKY/WX    TMP DP  RH WIND       PRES   REMARKS
JACKSON        PTCLDY    19  18  93 S12       30.35F WCI   7
CODY           FAIR      39  18  41 W16G31    30.12R WCI  30
GREYBULL       FAIR      19  13  77 W5        30.18F WCI  12
WORLAND        FAIR      19  14  81 SW5       30.18F WCI  12
SHERIDAN       MOCLDY    41  18  38 CALM      29.94F
BUFFALO        FAIR      39  21  48 SW12      29.99F WCI  32
GILLETTE       FAIR      33  21  61 SW22      30.00F WCI  21
HULETT         FAIR      34  19  55 SW13G18   30.01F WCI  25
NEWCASTLE      FAIR      23  16  74 N7        30.11R WCI  15

$$
WYZ014>020-022>026-101>103-061600-
CENTRAL WYOMING

CITY           SKY/WX    TMP DP  RH WIND       PRES   REMARKS
BIG PINEY      FAIR       7   3  84 E3        30.37R
PINEDALE       FAIR      10   9  92 NW7       30.37R WCI   0
DUBOIS         FAIR      23  14  68 NW32G40   30.22F WCI   5
LANDER         FAIR      25  10  53 SW8       30.20F WCI  16
RIVERTON       FAIR      17   8  67 SW10      30.21R WCI   5
CASPER         FAIR      25  16  68 SW28G43   30.19R WCI   9
DOUGLAS        FAIR      33  20  58 W14G25      N/A  WCI  23

$$
WYZ021-027>030-104>119-061600-
SOUTHERN WYOMING

CITY           SKY/WX    TMP DP  RH WIND       PRES   REMARKS
EVANSTON       FAIR      15  10  80 SW13      30.41F WCI   1
FORT BRIDGER   SUNNY     23  14  68 W21       30.42F WCI   8
ROCK SPRINGS   FAIR      18  12  77 W25       30.38S WCI   0
DIXON          FAIR       3   0  84 CALM      30.48R
RAWLINS        CLOUDY    22  12  65 SW31G37   30.32R WCI   4
SARATOGA       FAIR      19  10  68 SE12      30.35R WCI   7
LARAMIE        FAIR      21  11  65 S16       30.23R WCI   7
CHEYENNE       FAIR      32  16  51 W26G41    30.12F WCI  18
TORRINGTON     FAIR      31  18  58 W6        30.14S WCI  25
PINE BLUFFS    FAIR      27  16  63 S9        30.18S WCI  17

$$



USA.gov is the U.S. government's official web portal to all federal, state and local government web resources and services.